Flag for Cameroon Weather past 2 weeks in Douala, Cameroon

Now
77 °F

Passing clouds.


Feels Like: 78 °F
Forecast: 74 / 76 °F
Wind: 2 mph from North

Location: Douala Obs.

Current Time: Jul 1, 2015 at 8:48:33 PM

Latest Report: Jul 1, 2015 at 8:00 PM


Visibility: 5 mi

Pressure: 29.89 "Hg

Humidity: 94%

Dew point: 75 °F

Location of DoualaLocation

Historic Weather in Douala — Graph

°F

Douala temperature yesterday

Maximum temperature yesterday: 79 °F (at 12:00 PM)
Minimum temperature yesterday: 75 °F (at 1:00 AM)
Average temperature yesterday: 76 °F

Past Weeks' High & Low Weather Summary

 TemperatureHumidityPressure
High84 °F (Jun 21, 2:00 PM)100% (Jun 16, 9:00 PM)30.09 "Hg (Jun 16, 9:00 PM)
Low75 °F (Jun 20, 6:00 AM)70% (Jun 29, 12:00 PM)29.80 "Hg (Jun 17, 4:00 PM)
Average78 °F91%29.96 "Hg
* Reported Jun 16 8:00 PM — Jul 1 8:00 PM, Douala, Weather by CustomWeather, © 2015

Note: Actual official high and low records may vary slightly from our data, if they occured in-between our weather recording intervals... More about our weather records

Advertising

Douala weather history for previous 24 hours

 ConditionsComfort  
Time TempWeatherWind HumidityBarometerVisibility
8:00 PM
Wed, Jul 1
77 °FPassing clouds.2 mph94%29.89 "Hg5 mi
7:00 PM77 °FPassing clouds.2 mph89%29.89 "Hg5 mi
6:00 PM79 °FPartly sunny.5 mph89%29.89 "Hg5 mi
5:00 PM79 °FPartly sunny.5 mph89%29.89 "Hg5 mi
4:00 PM79 °FDrizzle. Partly sunny.6 mph89%29.89 "Hg5 mi
3:00 PM77 °FDrizzle. More clouds than sun.6 mph94%29.92 "Hg1 mi
2:00 PM77 °FDrizzle. More clouds than sun.5 mph94%29.95 "Hg4 mi
1:00 PM77 °FDrizzle. More clouds than sun.No wind94%29.95 "Hg4 mi
12:00 PM77 °FDrizzle. More clouds than sun.5 mph94%29.98 "Hg4 mi
11:00 AM77 °FDrizzle. More clouds than sun.5 mph89%29.98 "Hg4 mi
10:00 AM75 °FDrizzle. More clouds than sun.5 mph100%29.98 "Hg1 mi
9:00 AM75 °FDrizzle. More clouds than sun.2 mph100%29.98 "Hg1 mi
8:00 AM75 °FDrizzle. More clouds than sun.No wind94%29.98 "Hg1 mi
7:00 AM75 °FDrizzle. More clouds than sun.No wind100%29.95 "Hg4 mi
6:00 AM75 °FDrizzle. Mostly cloudy.No wind94%29.95 "Hg4 mi
5:00 AM75 °FDrizzle. Mostly cloudy.No wind94%29.95 "Hg4 mi
4:00 AM75 °FDrizzle. Mostly cloudy.No wind94%29.95 "Hg4 mi
3:00 AM75 °FDrizzle. Mostly cloudy.No wind94%29.95 "Hg4 mi
1:00 AM75 °FPartly cloudy.No wind94%29.95 "Hg4 mi
12:00 AM75 °FPartly cloudy.No wind100%29.98 "HgN/A
11:00 PM
Tue, Jun 30
77 °FPartly cloudy.5 mph94%29.98 "HgN/A
10:00 PM77 °FPartly cloudy.No wind94%29.98 "HgN/A
9:00 PM77 °FPartly cloudy.2 mph94%29.95 "HgN/A
8:00 PM77 °FPartly cloudy.7 mph94%29.95 "HgN/A
Weather by CustomWeather, © 2015

See weather overviewHow to use our weather pages